sat.trackr.live / text

‹ back to catalog

STARLINK-6031

NORAD 56810 · 2023-078AV

PAYLOAD ACTIVE UNKNOWN

§ Identity

Operator
Country
US
Launch date
2023-05-31
Launch site
AFWTR
Launch vehicle
Mass (kg)
RCS (m²)

Purposes: comms

External: N2YO · Heavens-Above · Gunter

§ Orbital elements

Epoch: 2026-05-25T03:27:44.777664Z

Period
96.11 min
Inclination
69.9984°
Eccentricity
0.0003741
Mean motion
14.98330560 rev/d
Perigee alt
569.5 km
Apogee alt
574.7 km
Semi-major
6,950.2 km
B*
-4.3761e-6
RAAN
151.6356°
Arg perigee
266.8168°
Mean anomaly
93.2563°
Rev number
16,413

§ Raw data

STARLINK-60311 56810U 23078AV  26145.14426826 -.00000145  00000+0 -43761-5 0  99982 56810  69.9984 151.6356 0003741 266.8168  93.2563 14.98330560164138

JSON: /api/v1/satellites/56810 · /tle

For live sub-satellite position, see the globe view (requires WebGL).

§ Visibility from observer

Set your observer location to see the next 7 days of passes ≥ 10°. The values pass through the URL so the page stays shareable.

No JS? Fill the form by hand. The geolocation button needs JavaScript.